Chicopee, MA

8:45 AM EDT on May 20, 2018 (GMT -0400)
Westover Air Reserve Base / Metropolitan Airport

Weather History for KCEF - February, 2014

Change the Weather History Date:

Monday, February 3, 2014

  Actual Average Record
Temperature  
Mean Temperature 26 °F -  
Max Temperature 35 °F 33 °F 58 °F (2016)
Min Temperature 17 °F 17 °F -4 °F (2015)
Degree Days  
Heating Degree Days 39    
Moisture  
Dew Point 25 °F    
Average Humidity 95    
Maximum Humidity 100    
Minimum Humidity 79    
Precipitation  
Precipitation 0.12 in - - ()
Sea Level Pressure  
Sea Level Pressure 30.23 in    
Wind  
Wind Speed 4 mph (NNE)    
Max Wind Speed 13 mph    
Max Gust Speed -    
Visibility 4 miles    
Events Fog , Snow    
Averages and records for this station are not official NWS values.
T = Trace of Precipitation, MM = Missing Value Source: NWS Daily Summary

Daily Weather History Graph

Daily Weather History Graph

Search for Another Location

Airport or City:

Astronomy

Feb. 03, 2014 Rise Set
Actual Time 7:01 AM EST 5:07 PM EST
Civil Twilight 6:31 AM EST 5:36 PM EST
Nautical Twilight 5:58 AM EST 6:10 PM EST
Astronomical Twilight 5:25 AM EST 6:42 PM EST
Moon 8:56 AM EST (2/3) 10:00 PM EST (2/3)
Length of Visible Light 11h 05m
Length of Day
10h 05m
Waxing Crescent, 19% of the Moon is Illuminated
Feb 3
Waxing Crescent
Feb 6
First Quarter
Feb 14
Full
Feb 22
Last Quarter
Mar 1
New

Hourly Weather History & Observations

Time (EST) Temp. Windchill Dew Point Humidity Pressure Visibility Wind Dir Wind Speed Gust Speed Precip Events Conditions
12:58 AM 34.0 °F - 32.9 °F 96% 30.12 in 10.0 mi NNE 2.3 mph - N/A   Mostly Cloudy
1:58 AM 35.4 °F 32.6 °F 30.2 °F 81% 30.12 in 10.0 mi North 3.5 mph - N/A   Mostly Cloudy
2:58 AM 35.6 °F 32.8 °F 29.8 °F 80% 30.14 in 10.0 mi North 3.5 mph - N/A   Overcast
3:58 AM 34.9 °F 29.9 °F 30.0 °F 82% 30.13 in 10.0 mi North 5.8 mph - N/A   Overcast
4:58 AM 34.5 °F 29.4 °F 28.9 °F 80% 30.14 in 10.0 mi North 5.8 mph - N/A   Overcast
5:58 AM 33.8 °F 29.6 °F 28.9 °F 82% 30.17 in 10.0 mi North 4.6 mph - N/A   Partly Cloudy
6:58 AM 33.4 °F 29.1 °F 29.1 °F 84% 30.17 in 10.0 mi North 4.6 mph - N/A   Clear
7:58 AM 33.4 °F 30.4 °F 29.3 °F 85% 30.16 in 10.0 mi NNE 3.5 mph - N/A   Clear
8:58 AM 34.0 °F 28.8 °F 28.2 °F 79% 30.19 in 10.0 mi North 5.8 mph - N/A   Partly Cloudy
9:00 AM 33.8 °F 28.6 °F 28.4 °F 81% 30.16 in 8.0 mi North 5.8 mph - N/A Snow Light Snow
9:07 AM 33.8 °F 27.0 °F 28.4 °F 81% 30.15 in 2.0 mi NNE 8.1 mph - N/A Snow Light Snow
9:58 AM 32.0 °F 28.7 °F 31.5 °F 98% 30.21 in 1.0 mi NE 3.5 mph - 0.00 in Snow Light Snow
10:16 AM 32.0 °F 28.7 °F 32.0 °F 100% 30.19 in 0.8 mi NNE 3.5 mph - N/A Snow Light Snow
10:46 AM 32.0 °F 28.7 °F 32.0 °F 100% 30.19 in 0.5 mi East 3.5 mph - N/A Fog , Snow Light Snow
10:58 AM 30.9 °F 25.2 °F 30.6 °F 99% 30.22 in 0.5 mi East 5.8 mph - 0.04 in Fog , Snow Light Snow
11:27 AM 32.0 °F 24.8 °F 32.0 °F 100% 30.18 in 1.0 mi ENE 8.1 mph - N/A Snow Light Snow
11:58 AM 30.9 °F 24.3 °F 30.6 °F 99% 30.19 in 1.2 mi NE 6.9 mph - 0.01 in Snow Light Snow
12:58 PM 30.6 °F 22.4 °F 30.0 °F 98% 30.17 in 1.0 mi NNE 9.2 mph - 0.02 in Snow Light Snow
1:48 PM 30.2 °F 22.6 °F 30.2 °F 100% 30.14 in 0.8 mi NNE 8.1 mph - N/A Snow Light Snow
1:58 PM 30.2 °F 20.2 °F 29.7 °F 98% 30.17 in 0.8 mi NNE 12.7 mph - 0.02 in Snow Light Snow
2:58 PM 29.7 °F 22.0 °F 29.1 °F 98% 30.17 in 1.2 mi NNE 8.1 mph - 0.01 in Snow Light Snow
3:58 PM 29.5 °F 21.1 °F 28.9 °F 98% 30.19 in 1.2 mi North 9.2 mph - 0.01 in Snow Light Snow
4:33 PM 30.2 °F 24.3 °F 28.4 °F 93% 30.17 in 1.8 mi North 5.8 mph - N/A Snow Light Snow
4:46 PM 30.2 °F 25.4 °F 28.4 °F 93% 30.17 in 1.2 mi North 4.6 mph - N/A Snow Light Snow
4:58 PM 29.5 °F 23.4 °F 29.3 °F 99% 30.20 in 1.8 mi North 5.8 mph - 0.01 in Snow Light Snow
5:22 PM 30.2 °F 24.3 °F 28.4 °F 93% 30.18 in 2.5 mi North 5.8 mph - N/A Snow Light Snow
5:49 PM 28.4 °F 23.3 °F 28.4 °F 100% 30.18 in 10.0 mi North 4.6 mph - N/A Snow Light Snow
5:58 PM 29.1 °F 24.1 °F 28.9 °F 99% 30.21 in 10.0 mi NNW 4.6 mph - 0.00 in Snow Light Snow
6:20 PM 28.4 °F - 28.4 °F 100% 30.18 in 10.0 mi NNE 2.3 mph - N/A   Mostly Cloudy
6:58 PM 27.0 °F 23.0 °F 26.6 °F 99% 30.23 in 10.0 mi NNW 3.5 mph - N/A   Scattered Clouds
7:41 PM 23.0 °F 18.4 °F 23.0 °F 100% 30.22 in 1.8 mi NW 3.5 mph - N/A   Clear
7:42 PM 23.0 °F 18.4 °F 23.0 °F 100% 30.22 in 1.2 mi NW 3.5 mph - N/A   Clear
7:43 PM 23.0 °F 18.4 °F 23.0 °F 100% 30.22 in 1.0 mi NW 3.5 mph - N/A   Clear
7:44 PM 23.0 °F - 23.0 °F 100% 30.22 in 0.8 mi NW 2.3 mph - N/A   Clear
7:45 PM 23.0 °F - 21.2 °F 93% 30.22 in 0.8 mi NW 2.3 mph - N/A   Clear
7:46 PM 23.0 °F - 21.2 °F 93% 30.22 in 0.5 mi NW 2.3 mph - N/A Fog Light Freezing Fog
7:47 PM 23.0 °F - 21.2 °F 93% 30.22 in 10.0 mi NW 2.3 mph - N/A Fog Shallow Fog
7:58 PM 22.8 °F - 22.3 °F 98% 30.25 in 10.0 mi NNW 2.3 mph - N/A Fog Shallow Fog
8:37 PM 23.0 °F - 21.2 °F 93% 30.24 in 10.0 mi Calm Calm - N/A Fog Patches of Fog
8:58 PM 21.2 °F - 21.2 °F 100% 30.28 in 10.0 mi NNE 1.2 mph - N/A Fog Patches of Fog
9:23 PM 23.0 °F 18.4 °F 23.0 °F 100% 30.25 in 10.0 mi NNE 3.5 mph - N/A   Overcast
9:58 PM 22.8 °F 18.2 °F 22.3 °F 98% 30.27 in 10.0 mi NE 3.5 mph - N/A   Overcast
10:24 PM 23.0 °F - 23.0 °F 100% 30.26 in 2.5 mi Calm Calm - N/A   Mostly Cloudy
10:25 PM 23.0 °F - 23.0 °F 100% 30.26 in 1.8 mi Calm Calm - N/A   Mostly Cloudy
10:27 PM 23.0 °F - 23.0 °F 100% 30.26 in 10.0 mi Calm Calm - N/A Fog Patches of Fog
10:58 PM 23.0 °F - 23.0 °F 100% 30.31 in 10.0 mi Calm Calm - N/A Fog Patches of Fog
10:59 PM 23.0 °F - 23.0 °F 100% 30.28 in 1.8 mi West 1.2 mph - N/A   Overcast
11:00 PM 23.0 °F - 23.0 °F 100% 30.28 in 1.5 mi West 1.2 mph - N/A   Overcast
11:01 PM 23.0 °F - 23.0 °F 100% 30.28 in 1.2 mi WNW 1.2 mph - N/A   Overcast
11:02 PM 23.0 °F - 23.0 °F 100% 30.28 in 1.0 mi Calm Calm - N/A   Overcast
11:03 PM 23.0 °F - 23.0 °F 100% 30.28 in 0.8 mi Calm Calm - N/A   Overcast
11:04 PM 23.0 °F - 23.0 °F 100% 30.28 in 0.8 mi Calm Calm - N/A   Overcast
11:09 PM 23.0 °F - 21.2 °F 93% 30.28 in 0.8 mi SSE 1.2 mph - N/A   Mostly Cloudy
11:10 PM 23.0 °F - 21.2 °F 93% 30.28 in 0.8 mi SSE 1.2 mph - N/A   Mostly Cloudy
11:11 PM 23.0 °F - 21.2 °F 93% 30.28 in 0.8 mi SE 2.3 mph - N/A   Mostly Cloudy
11:12 PM 23.0 °F - 21.2 °F 93% 30.28 in 1.0 mi SE 2.3 mph - N/A   Mostly Cloudy
11:13 PM 23.0 °F - 21.2 °F 93% 30.28 in 1.5 mi SE 2.3 mph - N/A   Mostly Cloudy
11:14 PM 23.0 °F - 21.2 °F 93% 30.27 in 2.5 mi SE 2.3 mph - N/A   Mostly Cloudy
11:15 PM 23.0 °F - 21.2 °F 93% 30.27 in 3.0 mi ESE 2.3 mph - N/A   Mostly Cloudy
11:41 PM 19.4 °F - 19.4 °F 100% 30.28 in 2.0 mi South 2.3 mph - N/A   Mostly Cloudy
11:42 PM 19.4 °F - 19.4 °F 100% 30.28 in 1.8 mi SSE 2.3 mph - N/A   Mostly Cloudy
11:43 PM 19.4 °F - 17.6 °F 93% 30.28 in 1.2 mi SSE 2.3 mph - N/A   Mostly Cloudy
11:44 PM 19.4 °F - 17.6 °F 93% 30.28 in 1.0 mi South 2.3 mph - N/A   Mostly Cloudy
11:45 PM 19.4 °F - 17.6 °F 93% 30.28 in 0.8 mi Variable 2.3 mph - N/A   Mostly Cloudy
11:46 PM 19.4 °F - 17.6 °F 93% 30.28 in 0.8 mi SW 1.2 mph - N/A   Mostly Cloudy
11:47 PM 19.4 °F - 17.6 °F 93% 30.28 in 0.5 mi WSW 1.2 mph - N/A Fog Light Freezing Fog
11:50 PM 17.6 °F - 17.6 °F 100% 30.28 in 0.5 mi South 2.3 mph - N/A Fog Light Freezing Fog
11:51 PM 19.4 °F - 17.6 °F 93% 30.28 in 0.2 mi South 2.3 mph - N/A Fog Light Freezing Fog
11:52 PM 19.4 °F - 17.6 °F 93% 30.28 in 0.2 mi South 2.3 mph - N/A Fog Light Freezing Fog
11:54 PM 19.4 °F - 19.4 °F 100% 30.28 in 0.2 mi South 2.3 mph - N/A Fog Light Freezing Fog
11:58 PM 19.0 °F - 18.7 °F 98% 30.31 in 0.2 mi SSW 1.2 mph - N/A Fog Light Freezing Fog